| time (UTC) | temp F | wind direction | speed knots | gust knots | rain 1hr in | rain 24hr in | rain mn in | humidity % | barometer mb |
| 20260504050553 | 53 | 259 | 5.2 | 8.7 | 0.00 | 0.00 | 0.00 | 49 | 1000.4 |
| 20260504045550 | 53 | 233 | 5.2 | 7.8 | 0.00 | 0.00 | 0.00 | 49 | 1000.7 |
| 20260504045051 | 53 | 246 | 5.2 | 7.8 | 0.00 | 0.00 | 0.00 | 49 | 1000.8 |
| 20260504044549 | 53 | 245 | 4.3 | 7.0 | 0.00 | 0.00 | 0.00 | 49 | 1000.9 |
| 20260504044048 | 53 | 240 | 4.3 | 6.1 | 0.00 | 0.00 | 0.00 | 48 | 1000.9 |
| 20260504043548 | 53 | 240 | 4.3 | 6.1 | 0.00 | 0.00 | 0.00 | 48 | 1001.1 |
| 20260504043054 | 53 | 246 | 3.5 | 5.2 | 0.00 | 0.00 | 0.00 | 48 | 1001.3 |
| 20260504042548 | 54 | 238 | 3.5 | 5.2 | 0.00 | 0.00 | 0.00 | 48 | 1001.5 |
| 20260504042044 | 54 | 248 | 2.6 | 5.2 | 0.00 | 0.00 | 0.00 | 47 | 1001.5 |
| 20260504041544 | 54 | 243 | 2.6 | 3.5 | 0.00 | 0.00 | 0.00 | 47 | 1001.7 |
| 20260504041043 | 54 | 245 | 2.6 | 4.3 | 0.00 | 0.00 | 0.00 | 47 | 1001.7 |
| 20260504040542 | 54 | 256 | 2.6 | 4.3 | 0.00 | 0.00 | 0.00 | 47 | 1001.8 |
| 20260504040041 | 54 | 238 | 2.6 | 4.3 | 0.00 | 0.00 | 0.00 | 47 | 1002.0 |
| 20260504035540 | 54 | 243 | 1.7 | 4.3 | 0.00 | 0.00 | 0.00 | 47 | 1002.1 |
| 20260504035040 | 55 | 252 | 1.7 | 3.5 | 0.00 | 0.00 | 0.00 | 46 | 1002.2 |
| 20260504034539 | 55 | 246 | 1.7 | 3.5 | 0.00 | 0.00 | 0.00 | 45 | 1002.2 |
| 20260504034038 | 56 | 239 | 1.7 | 4.3 | 0.00 | 0.00 | 0.00 | 44 | 1002.4 |
| 20260504033537 | 56 | 267 | 1.7 | 4.3 | 0.00 | 0.00 | 0.00 | 43 | 1002.4 |
| 20260504033036 | 56 | 240 | 1.7 | 3.5 | 0.00 | 0.00 | 0.00 | 43 | 1002.5 |
| 20260504032536 | 56 | 233 | 1.7 | 3.5 | 0.00 | 0.00 | 0.00 | 42 | 1002.7 |
| 20260504032036 | 57 | 246 | 0.9 | 2.6 | 0.00 | 0.00 | 0.00 | 42 | 1002.8 |
| 20260504031535 | 57 | 239 | 0.9 | 2.6 | 0.00 | 0.00 | 0.00 | 41 | 1002.9 |
| 20260504031033 | 57 | 245 | 1.7 | 2.6 | 0.00 | 0.00 | 0.00 | 41 | 1003.0 |
| 20260504030533 | 57 | 259 | 0.9 | 2.6 | 0.00 | 0.00 | 0.00 | 41 | 1003.1 |
| 20260504030033 | 57 | 245 | 1.7 | 2.6 | 0.00 | 0.00 | 0.00 | 41 | 1003.2 |
| 20260504025533 | 57 | 240 | 0.9 | 2.6 | 0.00 | 0.00 | 0.00 | 40 | 1003.1 |
| 20260504025034 | 58 | 252 | 0.0 | 2.6 | 0.00 | 0.00 | 0.00 | 40 | 1003.1 |
| 20260504024535 | 58 | 253 | 0.9 | 2.6 | 0.00 | 0.00 | 0.00 | 40 | 1003.2 |
| 20260504024033 | 58 | 258 | 0.0 | 2.6 | 0.00 | 0.00 | 0.00 | 40 | 1003.2 |
| 20260504023531 | 58 | 275 | 0.0 | 2.6 | 0.00 | 0.00 | 0.00 | 39 | 1003.2 |
| 20260504023034 | 58 | 254 | 0.0 | 1.7 | 0.00 | 0.00 | 0.00 | 39 | 1003.2 |
| 20260504022533 | 59 | 249 | 0.9 | 1.7 | 0.00 | 0.00 | 0.00 | 39 | 1003.3 |
| 20260504022031 | 59 | 266 | 0.0 | 1.7 | 0.00 | 0.00 | 0.00 | 38 | 1003.2 |
| 20260504021530 | 59 | 262 | 0.0 | 0.9 | 0.00 | 0.00 | 0.00 | 38 | 1003.3 |
| 20260504021030 | 59 | 263 | 0.0 | 0.9 | 0.00 | 0.00 | 0.00 | 38 | 1003.3 |
| 20260504020529 | 59 | 261 | 0.0 | 1.7 | 0.00 | 0.00 | 0.00 | 38 | 1003.3 |
| 20260504020028 | 60 | 269 | 0.0 | 1.7 | 0.00 | 0.00 | 0.00 | 38 | 1003.3 |
| 20260504015529 | 60 | 277 | 0.0 | 1.7 | 0.00 | 0.00 | 0.00 | 37 | 1003.4 |
| 20260504015029 | 60 | 257 | 0.0 | 1.7 | 0.00 | 0.00 | 0.00 | 37 | 1003.4 |
| 20260504014537 | 60 | 252 | 0.9 | 1.7 | 0.00 | 0.00 | 0.00 | 37 | 1003.4 |
| 20260504014028 | 61 | 262 | 0.9 | 1.7 | 0.00 | 0.00 | 0.00 | 38 | 1003.5 |
| 20260504013526 | 61 | 278 | 0.9 | 1.7 | 0.00 | 0.00 | 0.00 | 40 | 1003.6 |
| 20260504013035 | 61 | 288 | 0.9 | 2.6 | 0.00 | 0.00 | 0.00 | 38 | 1003.6 |
| 20260504012526 | 62 | 280 | 0.9 | 3.5 | 0.00 | 0.00 | 0.00 | 43 | 1003.7 |
| 20260504012026 | 62 | 283 | 2.6 | 4.3 | 0.00 | 0.00 | 0.00 | 39 | 1003.6 |
| 20260504011526 | 63 | 283 | 2.6 | 6.1 | 0.00 | 0.00 | 0.00 | 38 | 1003.6 |
| 20260504011024 | 63 | 281 | 3.5 | 7.0 | 0.00 | 0.00 | 0.00 | 40 | 1003.7 |
| 20260504010524 | 64 | 290 | 5.2 | 8.7 | 0.00 | 0.00 | 0.00 | 35 | 1003.8 |
| 20260504010023 | 64 | 288 | 5.2 | 10.4 | 0.00 | 0.00 | 0.00 | 34 | 1003.8 |
| 20260504005523 | 65 | 290 | 7.0 | 10.4 | 0.00 | 0.00 | 0.00 | 32 | 1003.8 |
| 20260504005023 | 65 | 285 | 7.8 | 10.4 | 0.00 | 0.00 | 0.00 | 33 | 1003.9 |
| 20260504004527 | 66 | 271 | 7.0 | 12.2 | 0.00 | 0.00 | 0.00 | 33 | 1003.9 |
| 20260504004022 | 66 | 290 | 7.0 | 12.2 | 0.00 | 0.00 | 0.00 | 33 | 1003.9 |
| 20260504003522 | 66 | 284 | 8.7 | 12.2 | 0.00 | 0.00 | 0.00 | 31 | 1003.9 |
| 20260504003021 | 66 | 283 | 6.1 | 10.4 | 0.00 | 0.00 | 0.00 | 30 | 1004.0 |
| 20260504002523 | 66 | 287 | 7.0 | 11.3 | 0.00 | 0.00 | 0.00 | 29 | 1004.0 |
| 20260504002021 | 66 | 248 | 7.8 | 14.8 | 0.00 | 0.00 | 0.00 | 28 | 1004.1 |
| 20260504001521 | 66 | 287 | 7.0 | 13.9 | 0.00 | 0.00 | 0.00 | 30 | 1004.0 |
| 20260504001020 | 67 | 283 | 8.7 | 13.9 | 0.00 | 0.00 | 0.00 | 27 | 1004.0 |
| 20260504000519 | 67 | 328 | 6.1 | 13.9 | 0.00 | 0.00 | 0.00 | 28 | 1004.0 |
| 20260504000020 | 67 | 285 | 5.2 | 12.2 | 0.00 | 0.00 | 0.00 | 28 | 1004.1 |
| 20260503235521 | 67 | 294 | 5.2 | 12.2 | 0.00 | 0.00 | 0.00 | 30 | 1004.2 |
| 20260503235019 | 67 | 313 | 5.2 | 13.9 | 0.00 | 0.00 | 0.00 | 30 | 1004.3 |
| 20260503234521 | 67 | 281 | 8.7 | 14.8 | 0.00 | 0.00 | 0.00 | 30 | 1004.1 |
| 20260503234022 | 67 | 256 | 10.4 | 14.8 | 0.00 | 0.00 | 0.00 | 28 | 1004.2 |
| 20260503233519 | 67 | 274 | 6.1 | 12.2 | 0.00 | 0.00 | 0.00 | 28 | 1004.2 |
| 20260503233021 | 68 | 256 | 5.2 | 12.2 | 0.00 | 0.00 | 0.00 | 28 | 1004.2 |
| 20260503232519 | 68 | 266 | 6.1 | 12.2 | 0.00 | 0.00 | 0.00 | 27 | 1004.3 |
| 20260503232019 | 68 | 281 | 4.3 | 13.0 | 0.00 | 0.00 | 0.00 | 26 | 1004.5 |
| 20260503231519 | 68 | 311 | 4.3 | 13.0 | 0.00 | 0.00 | 0.00 | 26 | 1004.5 |
| 20260503231015 | 68 | 274 | 4.3 | 10.4 | 0.00 | 0.00 | 0.00 | 25 | 1004.4 |
| 20260503230518 | 68 | 351 | 4.3 | 10.4 | 0.00 | 0.00 | 0.00 | 25 | 1004.5 |
| 20260503230017 | 68 | 295 | 5.2 | 13.0 | 0.00 | 0.00 | 0.00 | 26 | 1004.3 |
| 20260503225513 | 68 | 323 | 4.3 | 13.0 | 0.00 | 0.00 | 0.00 | 26 | 1004.5 |
| 20260503225012 | 68 | 277 | 2.6 | 15.6 | 0.00 | 0.00 | 0.00 | 26 | 1004.6 |
| 20260503224511 | 68 | 267 | 7.0 | 15.6 | 0.00 | 0.00 | 0.00 | 26 | 1004.6 |
| 20260503224013 | 68 | 229 | 3.5 | 9.6 | 0.00 | 0.00 | 0.00 | 25 | 1004.8 |
| 20260503223510 | 68 | 315 | 3.5 | 8.7 | 0.00 | 0.00 | 0.00 | 25 | 1004.8 |
| 20260503223009 | 68 | 20 | 3.5 | 13.9 | 0.00 | 0.00 | 0.00 | 24 | 1004.9 |
| 20260503222510 | 68 | 330 | 4.3 | 11.3 | 0.00 | 0.00 | 0.00 | 24 | 1004.9 |
| 20260503222110 | 68 | 312 | 5.2 | 11.3 | 0.00 | 0.00 | 0.00 | 26 | 1004.8 |
| 20260503221509 | 68 | 266 | 4.3 | 13.0 | 0.00 | 0.00 | 0.00 | 27 | 1004.9 |
| 20260503221009 | 68 | 319 | 5.2 | 14.8 | 0.00 | 0.00 | 0.00 | 26 | 1005.0 |
| 20260503220509 | 68 | 321 | 6.1 | 14.8 | 0.00 | 0.00 | 0.00 | 27 | 1005.0 |
| 20260503220007 | 68 | 297 | 2.6 | 8.7 | 0.00 | 0.00 | 0.00 | 26 | 1005.0 |
| 20260503215506 | 68 | 290 | 6.1 | 9.6 | 0.00 | 0.00 | 0.00 | 25 | 1005.0 |
| 20260503215006 | 68 | 354 | 4.3 | 11.3 | 0.00 | 0.00 | 0.00 | 25 | 1005.1 |
| 20260503214505 | 68 | 324 | 4.3 | 12.2 | 0.00 | 0.00 | 0.00 | 25 | 1005.2 |
| 20260503214004 | 68 | 318 | 3.5 | 12.2 | 0.00 | 0.00 | 0.00 | 27 | 1005.1 |
| 20260503213503 | 68 | 293 | 7.0 | 12.2 | 0.00 | 0.00 | 0.00 | 27 | 1005.1 |
| 20260503213007 | 68 | 314 | 6.1 | 11.3 | 0.00 | 0.00 | 0.00 | 27 | 1005.3 |
| 20260503212503 | 69 | 317 | 3.5 | 7.0 | 0.00 | 0.00 | 0.00 | 26 | 1005.4 |
| 20260503212002 | 69 | 328 | 0.9 | 9.6 | 0.00 | 0.00 | 0.00 | 26 | 1005.4 |
| 20260503211500 | 68 | 267 | 3.5 | 9.6 | 0.00 | 0.00 | 0.00 | 25 | 1005.5 |
| 20260503211001 | 68 | 324 | 4.3 | 8.7 | 0.00 | 0.00 | 0.00 | 27 | 1005.6 |
| 20260503210600 | 68 | 328 | 4.3 | 16.5 | 0.00 | 0.00 | 0.00 | 27 | 1005.6 |
| 20260503210502 | 68 | 295 | 3.5 | 16.5 | 0.00 | 0.00 | 0.00 | 27 | 1005.6 |
| 20260503210100 | 68 | 356 | 6.1 | 16.5 | 0.00 | 0.00 | 0.00 | 27 | 1005.7 |
| 20260503205600 | 68 | 304 | 4.3 | 13.0 | 0.00 | 0.00 | 0.00 | 28 | 1005.7 |
| 20260503205059 | 68 | 340 | 3.5 | 10.4 | 0.00 | 0.00 | 0.00 | 28 | 1005.8 |
| 20260503204559 | 68 | 314 | 3.5 | 8.7 | 0.00 | 0.00 | 0.00 | 28 | 1005.8 |
| 20260503204059 | 67 | 326 | 4.3 | 12.2 | 0.00 | 0.00 | 0.00 | 27 | 1005.8 |
| 20260503203558 | 67 | 341 | 4.3 | 12.2 | 0.00 | 0.00 | 0.00 | 27 | 1006.0 |
| 20260503203114 | 68 | 296 | 4.3 | 13.0 | 0.00 | 0.00 | 0.00 | 27 | 1006.0 |
| 20260503202558 | 67 | 323 | 6.1 | 13.0 | 0.00 | 0.00 | 0.00 | 28 | 1006.1 |
| 20260503202058 | 67 | 319 | 5.2 | 10.4 | 0.00 | 0.00 | 0.00 | 28 | 1006.1 |
| 20260503201557 | 66 | 355 | 4.3 | 13.0 | 0.00 | 0.00 | 0.00 | 27 | 1006.2 |
| 20260503201058 | 67 | 349 | 4.3 | 13.0 | 0.00 | 0.00 | 0.00 | 25 | 1006.3 |
| 20260503200556 | 67 | 290 | 4.3 | 7.8 | 0.00 | 0.00 | 0.00 | 27 | 1006.2 |
| 20260503200056 | 67 | 20 | 3.5 | 7.8 | 0.00 | 0.00 | 0.00 | 25 | 1006.2 |
| 20260503195556 | 67 | 30 | 4.3 | 8.7 | 0.00 | 0.00 | 0.00 | 26 | 1006.3 |
| 20260503195054 | 67 | 55 | 2.6 | 10.4 | 0.00 | 0.00 | 0.00 | 28 | 1006.4 |
| 20260503194553 | 67 | 284 | 4.3 | 10.4 | 0.00 | 0.00 | 0.00 | 28 | 1006.4 |
| 20260503194052 | 66 | 311 | 2.6 | 9.6 | 0.00 | 0.00 | 0.00 | 30 | 1006.5 |
| 20260503193552 | 66 | 44 | 3.5 | 9.6 | 0.00 | 0.00 | 0.00 | 28 | 1006.6 |
| 20260503193054 | 66 | 4 | 3.5 | 9.6 | 0.00 | 0.00 | 0.00 | 27 | 1006.6 |
| 20260503192550 | 65 | 354 | 4.3 | 9.6 | 0.00 | 0.00 | 0.00 | 29 | 1006.7 |
| 20260503192050 | 65 | 1 | 4.3 | 13.9 | 0.00 | 0.00 | 0.00 | 28 | 1006.7 |
| 20260503191552 | 65 | 40 | 5.2 | 13.9 | 0.00 | 0.00 | 0.00 | 28 | 1006.8 |
| 20260503191048 | 65 | 328 | 4.3 | 11.3 | 0.00 | 0.00 | 0.00 | 28 | 1007.0 |
| 20260503190548 | 65 | 270 | 5.2 | 11.3 | 0.00 | 0.00 | 0.00 | 29 | 1007.1 |
| 20260503185548 | 65 | 34 | 10.4 | 14.8 | 0.00 | 0.00 | 0.00 | 30 | 1007.1 |
| 20260503185048 | 65 | 4 | 5.2 | 12.2 | 0.00 | 0.00 | 0.00 | 30 | 1007.1 |
| 20260503184545 | 65 | 347 | 6.1 | 12.2 | 0.00 | 0.00 | 0.00 | 32 | 1007.2 |
| 20260503184048 | 64 | 301 | 4.3 | 13.9 | 0.00 | 0.00 | 0.00 | 32 | 1007.3 |
| 20260503183545 | 64 | 44 | 7.8 | 13.9 | 0.00 | 0.00 | 0.00 | 33 | 1007.3 |
| 20260503183045 | 64 | 32 | 3.5 | 9.6 | 0.00 | 0.00 | 0.00 | 33 | 1007.3 |
| 20260503182544 | 64 | 18 | 4.3 | 12.2 | 0.00 | 0.00 | 0.00 | 33 | 1007.3 |
| 20260503182044 | 64 | 85 | 6.1 | 12.2 | 0.00 | 0.00 | 0.00 | 35 | 1007.3 |
| 20260503181551 | 64 | 34 | 5.2 | 11.3 | 0.00 | 0.00 | 0.00 | 34 | 1007.6 |
| 20260503181044 | 64 | 338 | 4.3 | 13.0 | 0.00 | 0.00 | 0.00 | 34 | 1007.4 |
| 20260503180543 | 64 | 4 | 3.5 | 13.0 | 0.00 | 0.00 | 0.00 | 34 | 1007.5 |
| 20260503180049 | 64 | 311 | 0.9 | 13.0 | 0.00 | 0.00 | 0.00 | 37 | 1007.4 |
| 20260503175542 | 64 | 19 | 7.0 | 13.0 | 0.00 | 0.00 | 0.00 | 34 | 1007.6 |
| 20260503175041 | 64 | 68 | 5.2 | 11.3 | 0.00 | 0.00 | 0.00 | 32 | 1007.6 |
| 20260503174542 | 64 | 34 | 5.2 | 10.4 | 0.00 | 0.00 | 0.00 | 34 | 1007.6 |
| 20260503174042 | 64 | 354 | 6.1 | 11.3 | 0.00 | 0.00 | 0.00 | 34 | 1007.8 |
| 20260503173541 | 64 | 19 | 4.3 | 11.3 | 0.00 | 0.00 | 0.00 | 34 | 1007.7 |
| 20260503173040 | 63 | 32 | 3.5 | 9.6 | 0.00 | 0.00 | 0.00 | 34 | 1007.7 |
| 20260503172539 | 63 | 71 | 4.3 | 9.6 | 0.00 | 0.00 | 0.00 | 34 | 1007.7 |
| 20260503172039 | 63 | 27 | 5.2 | 8.7 | 0.00 | 0.00 | 0.00 | 33 | 1007.7 |
| 20260503171538 | 63 | 37 | 4.3 | 8.7 | 0.00 | 0.00 | 0.00 | 35 | 1007.7 |
| 20260503171038 | 63 | 13 | 5.2 | 11.3 | 0.00 | 0.00 | 0.00 | 35 | 1007.7 |
| 20260503170538 | 63 | 22 | 7.0 | 11.3 | 0.00 | 0.00 | 0.00 | 35 | 1007.8 |
| 20260503150520 | 60 | 4 | 3.5 | 14.8 | 0.00 | 0.00 | 0.00 | 50 | 1007.5 |
| 20260503131006 | 53 | 41 | 4.3 | 11.3 | 0.00 | 0.00 | 0.00 | 59 | 1007.0 |
| 20260503130508 | 53 | 10 | 3.5 | 11.3 | 0.00 | 0.00 | 0.00 | 60 | 1006.9 |
| 20260503110556 | 48 | 317 | 1.7 | 3.5 | 0.00 | 0.00 | 0.00 | 63 | 1004.9 |
| 20260503100105 | 49 | 278 | 2.6 | 4.3 | 0.00 | 0.00 | 0.00 | 62 | 1004.8 |
| 20260503081536 | 53 | 239 | 4.3 | 8.7 | 0.00 | 0.00 | 0.00 | 54 | 1005.2 |
| 20260503081029 | 54 | 236 | 4.3 | 9.6 | 0.00 | 0.00 | 0.00 | 54 | 1005.3 |
| 20260503080527 | 54 | 228 | 5.2 | 9.6 | 0.00 | 0.00 | 0.00 | 54 | 1005.4 |
| 20260503072521 | 55 | 242 | 4.3 | 7.8 | 0.00 | 0.00 | 0.00 | 52 | 1005.6 |
| 20260503072019 | 55 | 250 | 4.3 | 7.8 | 0.00 | 0.00 | 0.00 | 52 | 1005.5 |
| 20260503071519 | 56 | 258 | 4.3 | 7.8 | 0.00 | 0.00 | 0.00 | 52 | 1005.6 |
| 20260503071016 | 56 | 232 | 5.2 | 7.8 | 0.00 | 0.00 | 0.00 | 51 | 1005.6 |